Погода в Хофддорпе

Нидерланды     52°18′25″N   4°42′12″E
темп.,
°C
ветер,
м/с
пор.,
м/с
влажн.,
%
обл.,
%
осадки,
мм/ч
давл.,
гПа
погр.,
м
2 декабря, чт
чт201:00+6сз4869100 0.4 998629
04:00+6сз61175100 1.6 9981227
07:00+5сз71264100 3.4 9981041
10:00+4с51082100 1.6 1000912
13:00+7с5115236 2.8 10021669
16:00+5с4959100 0.3 1005752
19:00+4ссз13678 0.7 100784
22:00+3з127399 0.1 101046
3 декабря, пт
пт301:00+4ююз226998 0.3 101029
04:00+4юз3774100 0.1 1009192
07:00+5зюз4106799 0.4 1009540
10:00+5юз51161100 0.0 10071023
13:00+4ююз71591100 0.2 1005884
16:00+4ююз61588100 0.1 1003784
19:00+4ююз51290100 0.4 1001756
22:00+4ююз41091100 0.2 998599
4 декабря, сб
сб401:00+4ю389597 2.3 996348
04:00+4ююв3695100 0.1 994229
07:00+5ююв369799 0.1 993192
10:00+8зюз41088100 0.6 993482
13:00+8з5972100 0.9 992823
16:00+8з4880100 0.3 993487
19:00+7зсз81289100 1.4 995983
22:00+7з61168100 0.4 996960
5 декабря, вс
вс501:00+7з5972100 0.8 997754
04:00+6з6983100 1.6 998876
07:00+6зюз4886100 3.3 999899
10:00+6ююз3686100 0.2 1002616
13:00+6всв228398 0.3 1007269
16:00+4св599499 0.1 1011618
19:00+3всв3108315 0.1 1015502
22:00+4всв2784100 0.0 1018446
6 декабря, пн
пн601:00+4ссв1182100 0.0 102043
04:00+4юв118099 0.0 102264
07:00+4юв237595 0.0 102387
10:00+4ююв2472100 0.0 1024160
13:00+6ю366488 0.0 1024546
16:00+5ююз4768100 0.0 1024615
19:00+4ююз41072100 0.0 1025568
22:00+4ююз51172100 0.0 1025557